Location: Camerons Lookout
(40.9833°S, 175.9333°E)
Time: 22:34:44
(UTC+00:00)

ADEOS - Pass Details

Date: 14 January 2026
Orbit: 789 x 792 km, 98.8° (Epoch: 16 February)

Event Time Altitude Azimuth Distance (km) Brightness Sun altitude
Rises 09:31:04 0° 167° (SSE) 3,327 7.3 -15.8°
Reaches altitude 10° 09:33:24 10° 166° (SSE) 2,391 6.5 -16.1°
Maximum altitude 09:38:42 89° 82° (E) 807 3.5 -16.7°
Enters shadow 09:43:44 11° 345° (NNW) 2,276 5.6 -17.3°
